UAE46 LIRF-EGLL

Flight info

Callsign UAE46
Flight time N/A
Altitude 36000
Route NEMBO DCT GOVGO DCT SPEZI DCT OTMUV DCT AOSTA DCT ORSUD DCT MOLUS DCT GILIR DCT PENDU DCT IXILU DCT EPL DCT ROUSY DCT RITAX M624 BUB L608 LOGAN
Aircraft A388/J-SADE2E3FGHIJ3J4J5M1RWXY/L

Departure

Time 2026-05-06 19:05
Airport Rome–Fiumicino Leonardo da Vinci International Airport (LIRF)

Arrival

Time N/A
Airport London Heathrow Airport (EGLL)
Time Latitude Longitude Altitude Speed Heading
2026-05-06 18:46 41.79648 12.24020 19 ft 0 kts 128°
2026-05-06 18:53 41.79657 12.24005 21 ft 2 kts 128°
2026-05-06 18:53 41.79667 12.23988 23 ft 2 kts 128°
2026-05-06 18:53 41.79677 12.23971 24 ft 2 kts 128°
2026-05-06 18:54 41.79687 12.23954 24 ft 2 kts 128°
2026-05-06 18:54 41.79697 12.23936 24 ft 2 kts 127°
2026-05-06 18:54 41.79706 12.23918 24 ft 2 kts 122°
2026-05-06 18:54 41.79708 12.23905 23 ft 0 kts 86°
2026-05-06 18:56 41.79709 12.23914 24 ft 3 kts 72°
2026-05-06 18:56 41.79723 12.23966 22 ft 9 kts 69°
2026-05-06 18:56 41.79750 12.24062 20 ft 12 kts 69°
2026-05-06 18:56 41.79780 12.24168 20 ft 12 kts 70°
2026-05-06 18:57 41.79822 12.24271 20 ft 11 kts 31°
2026-05-06 18:57 41.79892 12.24267 20 ft 13 kts 341°
2026-05-06 18:57 41.79980 12.24227 20 ft 13 kts 355°
2026-05-06 18:57 41.80043 12.24276 21 ft 7 kts 67°
2026-05-06 18:58 41.80065 12.24356 19 ft 12 kts 70°
2026-05-06 18:58 41.80098 12.24474 21 ft 15 kts 70°
2026-05-06 18:58 41.80138 12.24622 21 ft 18 kts 70°
2026-05-06 18:58 41.80183 12.24786 22 ft 19 kts 70°
2026-05-06 18:59 41.80206 12.24955 19 ft 16 kts 91°
2026-05-06 18:59 41.80214 12.25096 22 ft 14 kts 73°
2026-05-06 18:59 41.80249 12.25228 19 ft 16 kts 69°
2026-05-06 18:59 41.80284 12.25353 21 ft 14 kts 70°
2026-05-06 19:00 41.80320 12.25483 25 ft 16 kts 70°
2026-05-06 19:00 41.80362 12.25636 24 ft 19 kts 70°
2026-05-06 19:00 41.80409 12.25806 21 ft 20 kts 70°
2026-05-06 19:00 41.80442 12.25927 21 ft 21 kts 70°
2026-05-06 19:01 41.80504 12.26154 25 ft 20 kts 70°
2026-05-06 19:01 41.80549 12.26318 23 ft 18 kts 70°
2026-05-06 19:01 41.80588 12.26456 23 ft 16 kts 70°
2026-05-06 19:01 41.80630 12.26609 23 ft 18 kts 70°
2026-05-06 19:02 41.80670 12.26753 20 ft 14 kts 70°
2026-05-06 19:02 41.80707 12.26888 21 ft 17 kts 70°
2026-05-06 19:02 41.80749 12.27020 22 ft 12 kts 50°
2026-05-06 19:02 41.80812 12.27040 21 ft 7 kts 341°
2026-05-06 19:03 41.80838 12.27027 20 ft 0 kts 339°
2026-05-06 19:03 41.80839 12.27026 20 ft 2 kts 339°
2026-05-06 19:03 41.80873 12.27009 22 ft 9 kts 339°
2026-05-06 19:04 41.80948 12.26961 20 ft 12 kts 307°
2026-05-06 19:04 41.80950 12.26899 18 ft 3 kts 250°
2026-05-06 19:04 41.80946 12.26884 22 ft 5 kts 250°
2026-05-06 19:04 41.80848 12.26531 24 ft 88 kts 249°
2026-05-06 19:05 41.80541 12.25423 26 ft 158 kts 248°
2026-05-06 19:05 41.80128 12.23965 500 ft 167 kts 244°
2026-05-06 19:05 41.79721 12.22511 1264 ft 164 kts 244°
2026-05-06 19:05 41.79364 12.21088 2059 ft 161 kts 250°
2026-05-06 19:06 41.79258 12.19567 2764 ft 166 kts 264°
2026-05-06 19:06 41.79250 12.18024 3429 ft 174 kts 264°
2026-05-06 19:06 41.79210 12.16332 3891 ft 191 kts 263°
2026-05-06 19:06 41.79154 12.14454 4315 ft 213 kts 264°
2026-05-06 19:07 41.79091 12.12374 4935 ft 236 kts 265°
2026-05-06 19:07 41.79047 12.10846 5372 ft 250 kts 265°
2026-05-06 19:07 41.78984 12.07644 6475 ft 265 kts 267°
2026-05-06 19:07 41.78988 12.05157 7444 ft 270 kts 268°
2026-05-06 19:08 41.79002 12.02633 8522 ft 269 kts 268°
2026-05-06 19:08 41.79010 12.00109 9565 ft 274 kts 268°
2026-05-06 19:08 41.79010 11.97535 10404 ft 283 kts 268°
2026-05-06 19:08 41.79003 11.94784 10753 ft 307 kts 267°
2026-05-06 19:09 41.78993 11.91827 11028 ft 330 kts 268°
2026-05-06 19:09 41.78984 11.88714 11746 ft 335 kts 268°
2026-05-06 19:09 41.78975 11.85548 12421 ft 344 kts 267°
2026-05-06 19:09 41.78965 11.82326 13258 ft 348 kts 267°
2026-05-06 19:10 41.78953 11.79062 14028 ft 352 kts 267°
2026-05-06 19:10 41.78940 11.75769 14816 ft 354 kts 267°
2026-05-06 19:10 41.78926 11.72465 15584 ft 356 kts 267°
2026-05-06 19:10 41.78910 11.69139 16335 ft 358 kts 267°
2026-05-06 19:11 41.78893 11.65781 17054 ft 362 kts 266°
2026-05-06 19:11 41.78875 11.62389 17771 ft 365 kts 266°
2026-05-06 19:11 41.78881 11.58976 18451 ft 369 kts 270°
2026-05-06 19:11 41.79397 11.55629 19067 ft 377 kts 286°
2026-05-06 19:12 41.80630 11.52495 19708 ft 385 kts 302°
2026-05-06 19:12 41.82388 11.49749 20298 ft 390 kts 308°
2026-05-06 19:12 41.84198 11.47026 20943 ft 391 kts 307°
2026-05-06 19:12 41.86005 11.44286 21538 ft 394 kts 307°
2026-05-06 19:13 41.87818 11.41522 22133 ft 396 kts 306°
2026-05-06 19:13 41.89644 11.38728 22723 ft 398 kts 306°
2026-05-06 19:13 41.91478 11.35919 23296 ft 401 kts 306°
2026-05-06 19:13 41.93321 11.33092 23821 ft 403 kts 306°
2026-05-06 19:14 41.94544 11.31215 24143 ft 405 kts 306°
2026-05-06 19:14 41.96409 11.28355 24562 ft 409 kts 305°
2026-05-06 19:14 41.98289 11.25463 25045 ft 412 kts 305°
2026-05-06 19:14 42.00180 11.22553 25569 ft 414 kts 305°
2026-05-06 19:15 42.02082 11.19625 26092 ft 417 kts 305°
2026-05-06 19:15 42.03993 11.16678 26634 ft 420 kts 305°
2026-05-06 19:15 42.05915 11.13711 27207 ft 423 kts 305°
2026-05-06 19:15 42.07853 11.10718 27784 ft 426 kts 304°
2026-05-06 19:16 42.09805 11.07701 28375 ft 429 kts 304°
2026-05-06 19:16 42.11774 11.04653 28934 ft 432 kts 304°
2026-05-06 19:16 42.13757 11.01579 29514 ft 436 kts 304°
2026-05-06 19:16 42.15755 10.98480 30079 ft 440 kts 304°
2026-05-06 19:17 42.17767 10.95356 30559 ft 443 kts 304°
2026-05-06 19:17 42.19800 10.92196 31044 ft 447 kts 304°
2026-05-06 19:17 42.21847 10.89011 31522 ft 451 kts 304°
2026-05-06 19:17 42.23913 10.85793 31994 ft 455 kts 304°
2026-05-06 19:18 42.25995 10.82559 32445 ft 460 kts 306°
2026-05-06 19:18 42.28325 10.79599 32878 ft 473 kts 315°
2026-05-06 19:18 42.31091 10.77088 33337 ft 486 kts 324°
2026-05-06 19:18 42.34204 10.75164 33782 ft 499 kts 334°
2026-05-06 19:19 42.37495 10.73574 34180 ft 503 kts 334°
2026-05-06 19:19 42.40786 10.71958 34664 ft 504 kts 334°
2026-05-06 19:19 42.44083 10.70327 35244 ft 503 kts 334°
2026-05-06 19:19 42.47362 10.68702 35824 ft 503 kts 334°
2026-05-06 19:20 42.50659 10.67065 35952 ft 501 kts 334°
2026-05-06 19:20 42.57192 10.63820 35949 ft 501 kts 333°
2026-05-06 19:21 42.63743 10.60557 35951 ft 502 kts 333°
2026-05-06 19:21 42.70314 10.57280 35978 ft 502 kts 333°
2026-05-06 19:22 42.76822 10.54027 35934 ft 501 kts 333°
2026-05-06 19:22 42.83363 10.50749 35936 ft 500 kts 333°
2026-05-06 19:23 42.89895 10.47468 35932 ft 500 kts 333°
2026-05-06 19:23 42.96425 10.44181 35943 ft 500 kts 333°
2026-05-06 19:24 43.02950 10.40888 35924 ft 500 kts 333°
2026-05-06 19:24 43.09474 10.37589 35927 ft 500 kts 333°
2026-05-06 19:25 43.15823 10.33883 35931 ft 491 kts 324°
2026-05-06 19:25 43.21430 10.28712 35926 ft 481 kts 314°
2026-05-06 19:26 43.26427 10.22646 35919 ft 479 kts 311°
2026-05-06 19:26 43.31392 10.16625 35928 ft 480 kts 311°
2026-05-06 19:27 43.36385 10.10526 35932 ft 480 kts 311°
2026-05-06 19:27 43.41368 10.04409 35935 ft 481 kts 311°
2026-05-06 19:28 43.46353 9.98275 35936 ft 481 kts 311°
2026-05-06 19:28 43.51337 9.92128 35935 ft 481 kts 311°
2026-05-06 19:29 43.56315 9.85973 35936 ft 481 kts 311°
2026-05-06 19:29 43.61306 9.79791 35961 ft 481 kts 311°
2026-05-06 19:30 43.66286 9.73605 35946 ft 482 kts 311°
2026-05-06 19:30 43.71268 9.67404 35936 ft 482 kts 311°
2026-05-06 19:31 43.76247 9.61191 35937 ft 482 kts 311°
2026-05-06 19:31 43.83648 9.51794 35934 ft 481 kts 310°
2026-05-06 19:32 43.88552 9.45482 35968 ft 481 kts 310°
2026-05-06 19:32 43.93440 9.39195 35934 ft 482 kts 310°
2026-05-06 19:33 43.98351 9.32868 35923 ft 482 kts 310°
2026-05-06 19:33 44.03271 9.26516 35922 ft 482 kts 310°
2026-05-06 19:34 44.08175 9.20167 35909 ft 482 kts 310°
2026-05-06 19:34 44.13085 9.13797 35911 ft 482 kts 310°
2026-05-06 19:35 44.17990 9.07417 35925 ft 483 kts 310°
2026-05-06 19:35 44.23307 9.01541 35906 ft 490 kts 317°
2026-05-06 19:36 44.28790 8.95883 35885 ft 490 kts 316°
2026-05-06 19:36 44.34237 8.90237 35903 ft 490 kts 316°
2026-05-06 19:37 44.39715 8.84552 35911 ft 491 kts 316°
2026-05-06 19:37 44.45200 8.78848 35924 ft 491 kts 316°
2026-05-06 19:38 44.50703 8.73111 35920 ft 492 kts 316°
2026-05-06 19:38 44.56167 8.67402 35921 ft 492 kts 316°
2026-05-06 19:39 44.61654 8.61655 35898 ft 492 kts 316°
2026-05-06 19:39 44.67127 8.55911 35882 ft 491 kts 316°
2026-05-06 19:40 44.72603 8.50148 35862 ft 491 kts 316°
2026-05-06 19:40 44.78068 8.44382 35858 ft 490 kts 316°
2026-05-06 19:41 44.83521 8.38616 35850 ft 490 kts 316°
2026-05-06 19:41 44.88975 8.32832 35877 ft 490 kts 316°
2026-05-06 19:42 44.94428 8.27037 35848 ft 491 kts 316°
2026-05-06 19:42 44.99879 8.21230 35847 ft 491 kts 316°
2026-05-06 19:43 45.05322 8.15417 35849 ft 490 kts 316°
2026-05-06 19:43 45.10765 8.09590 35852 ft 490 kts 316°
2026-05-06 19:44 45.16173 8.03785 35854 ft 491 kts 316°
2026-05-06 19:44 45.21619 7.97927 35860 ft 491 kts 316°
2026-05-06 19:45 45.27062 7.92057 35864 ft 491 kts 316°
2026-05-06 19:45 45.32504 7.86173 35865 ft 492 kts 316°
2026-05-06 19:46 45.37948 7.80273 35862 ft 492 kts 316°
2026-05-06 19:46 45.43392 7.74357 35862 ft 493 kts 317°
2026-05-06 19:47 45.48848 7.68413 35863 ft 495 kts 317°
2026-05-06 19:47 45.54318 7.62444 35877 ft 495 kts 317°
2026-05-06 19:48 45.59785 7.56460 35875 ft 495 kts 317°
2026-05-06 19:48 45.65256 7.50456 35888 ft 496 kts 317°
2026-05-06 19:49 45.70715 7.44446 35919 ft 495 kts 317°
2026-05-06 19:49 45.76171 7.38420 35901 ft 496 kts 317°
2026-05-06 19:50 45.81622 7.32451 35904 ft 498 kts 319°
2026-05-06 19:50 45.87293 7.26736 35896 ft 497 kts 320°
2026-05-06 19:51 45.92963 7.21037 35906 ft 498 kts 320°
2026-05-06 19:51 45.98610 7.15286 35917 ft 497 kts 320°
2026-05-06 19:52 46.04244 7.09511 35951 ft 497 kts 320°
2026-05-06 19:52 46.09873 7.03725 35942 ft 497 kts 320°
2026-05-06 19:53 46.15491 6.97944 35952 ft 496 kts 320°
2026-05-06 19:53 46.21101 6.92159 35917 ft 495 kts 320°
2026-05-06 19:54 46.26700 6.86363 35921 ft 495 kts 320°
2026-05-06 19:54 46.32308 6.80542 35956 ft 496 kts 320°
2026-05-06 19:55 46.37920 6.74703 35934 ft 497 kts 321°
2026-05-06 19:55 46.43561 6.68914 35922 ft 498 kts 324°
2026-05-06 19:56 46.49732 6.64232 35923 ft 502 kts 331°
2026-05-06 19:56 46.56009 6.59803 35927 ft 502 kts 330°
2026-05-06 19:57 46.62300 6.55342 35931 ft 503 kts 330°
2026-05-06 19:57 46.68547 6.50916 35931 ft 503 kts 330°
2026-05-06 19:58 46.74839 6.46450 35960 ft 503 kts 331°
2026-05-06 19:58 46.81123 6.41979 35956 ft 502 kts 331°
2026-05-06 19:59 46.87403 6.37499 35949 ft 502 kts 331°
2026-05-06 19:59 46.93684 6.33007 35949 ft 502 kts 331°
2026-05-06 20:00 46.98890 6.29275 35948 ft 501 kts 331°